GW0246 Weather Reports


time (UTC)temp
F
wind
direction
speed
knots
gust
knots
rain 1hr
in
rain 24hr
in
rain mn
in
humidity
%
barometer
mb
20260506222704 65 294 3.5 7.8 0.00 0.00 0.00 74 1019.2
20260506222018 65 286 3.5 10.4 0.00 0.00 0.00 74 1019.3
20260506221115 66 288 3.5 8.7 0.00 0.00 0.00 73 1019.4
20260506220005 67 296 1.7 8.7 0.00 0.00 0.00 72 1019.5
20260506215614 66 294 2.6 8.7 0.00 0.00 0.00 72 1019.6
20260506214717 66 296 2.6 8.7 0.00 0.00 0.00 72 1019.7
20260506213814 66 286 3.5 9.6 0.00 0.00 0.00 72 1019.9
20260506212916 66 294 4.3 9.6 0.00 0.00 0.00 73 1019.9
20260506211804 67 290 3.5 7.8 0.00 0.00 0.00 71 1019.8
20260506211116 68 299 1.7 7.0 0.00 0.00 0.00 69 1019.9
20260506210218 67 317 1.7 7.0 0.00 0.00 0.00 69 1019.8
20260506205405 67 304 1.7 7.8 0.00 0.00 0.00 70 1019.9
20260506204505 67 294 2.6 7.8 0.00 0.00 0.00 71 1019.9
20260506203814 66 294 3.5 8.7 0.00 0.00 0.00 71 1020.0
20260506202704 67 291 3.5 8.7 0.00 0.00 0.00 69 1020.0
20260506201804 67 297 1.7 7.0 0.00 0.00 0.00 68 1019.9
20260506201117 67 302 1.7 7.0 0.00 0.00 0.00 68 1020.0
20260506200005 67 311 2.6 7.8 0.00 0.00 0.00 68 1020.0
20260506195405 66 302 3.5 7.8 0.00 0.00 0.00 71 1020.0
20260506194504 66 290 2.6 8.7 0.00 0.00 0.00 69 1020.1
20260506193815 67 307 2.6 7.0 0.00 0.00 0.00 69 1020.1
20260506192704 67 291 2.6 6.1 0.00 0.00 0.00 70 1020.2
20260506192015 67 302 1.7 6.1 0.00 0.00 0.00 71 1020.2
20260506191117 66 301 2.6 7.8 0.00 0.00 0.00 70 1020.4
20260506190214 67 298 2.6 7.8 0.00 0.00 0.00 70 1020.4
20260506185616 67 292 1.7 7.8 0.00 0.00 0.00 69 1020.4
20260506184718 67 277 1.7 7.8 0.00 0.00 0.00 70 1020.4
20260506183816 67 291 1.7 8.7 0.00 0.00 0.00 70 1020.4
20260506182705 67 291 1.7 6.1 0.00 0.00 0.00 69 1020.4
20260506182015 68 291 1.7 9.6 0.00 0.00 0.00 69 1020.3
20260506180904 67 292 2.6 7.8 0.00 0.00 0.00 71 1020.2
20260506180005 68 297 2.6 6.1 0.00 0.00 0.00 68 1020.1
20260506175617 68 302 1.7 6.1 0.00 0.00 0.00 68 1020.0
20260506174719 68 306 1.7 5.2 0.00 0.00 0.00 65 1020.1
20260506173816 68 304 0.9 2.6 0.00 0.00 0.00 65 1019.9
20260506172704 67 1 0.9 3.5 0.00 0.00 0.00 67 1020.0
20260506172016 67 319 0.9 4.3 0.00 0.00 0.00 67 1020.0
20260506171118 67 82 0.9 2.6 0.00 0.00 0.00 66 1020.2
20260506170005 66 3 0.9 6.1 0.00 0.00 0.00 68 1020.2
20260506165405 66 95 0.0 2.6 0.00 0.00 0.00 67 1020.2
20260506164505 66 123 0.0 3.5 0.00 0.00 0.00 69 1020.3
20260506163604 64 118 1.7 4.3 0.00 0.00 0.00 72 1020.3
20260506162914 64 115 1.7 5.2 0.00 0.00 0.00 71 1020.4
20260506162017 63 116 1.7 5.2 0.00 0.00 0.00 72 1020.5
20260506161119 63 111 0.9 3.5 0.00 0.00 0.00 72 1020.4
20260506160216 63 119 0.9 3.5 0.00 0.00 0.00 72 1020.5
20260506155404 62 114 0.9 3.5 0.00 0.00 0.00 74 1020.4
20260506154505 62 121 0.9 3.5 0.00 0.00 0.00 75 1020.4
20260506153818 62 117 0.9 2.6 0.00 0.00 0.00 75 1020.5
20260506152705 61 111 0.9 3.5 0.00 0.00 0.00 76 1020.5
20260506152017 61 100 0.0 0.9 0.00 0.00 0.00 77 1020.6
20260506150904 60 124 0.0 1.7 0.00 0.00 0.00 79 1020.7
20260506150217 59 126 0.0 1.7 0.00 0.00 0.00 82 1020.7
20260506145619 58 119 0.0 0.9 0.00 0.00 0.00 82 1020.7
20260506144505 57 88 0.0 0.9 0.00 0.00 0.00 86 1020.7
20260506143606 56 95 0.0 0.9 0.00 0.00 0.00 89 1020.7
20260506142705 55 92 0.0 0.9 0.00 0.00 0.00 93 1020.7
20260506141804 53 90 0.0 0.9 0.00 0.00 0.00 95 1020.6
20260506141115 52 74 0.0 0.9 0.00 0.00 0.00 96 1020.6
20260506140005 50 83 0.0 0.9 0.00 0.00 0.00 96 1020.5
20260506135614 50 83 0.0 0.9 0.00 0.00 0.00 96 1020.4
20260506134717 50 88 0.0 0.9 0.00 0.00 0.00 96 1020.3
20260506133605 50 86 0.0 0.9 0.00 0.00 0.00 95 1020.2
20260506132705 49 82 0.0 0.9 0.00 0.00 0.00 96 1020.2
20260506131805 49 88 0.0 0.9 0.00 0.00 0.00 96 1020.1
20260506131116 49 99 0.0 0.9 0.00 0.00 0.00 96 1020.0
20260506130005 48 74 0.0 1.7 0.00 0.00 0.00 96 1019.9
20260506125615 48 77 0.0 1.7 0.00 0.00 0.00 96 1019.9
20260506124717 48 91 0.0 0.9 0.00 0.00 0.00 96 1019.8
20260506123814 47 105 0.0 0.9 0.00 0.00 0.00 95 1019.8
20260506122917 47 109 0.0 0.9 0.00 0.00 0.00 95 1019.7
20260506122014 48 91 0.0 0.9 0.00 0.00 0.00 95 1019.8
20260506120904 48 86 0.0 1.7 0.00 0.00 0.00 95 1019.7
20260506120005 48 107 0.0 0.9 0.00 0.00 0.00 95 1019.6
20260506115615 48 109 0.0 0.9 0.00 0.00 0.00 95 1019.6
20260506114718 48 105 0.0 0.9 0.00 0.00 0.00 95 1019.6
20260506113605 48 102 0.0 0.9 0.00 0.00 0.00 94 1019.7
20260506112917 48 105 0.0 0.9 0.00 0.00 0.00 94 1019.6
20260506111805 48 84 0.0 0.9 0.00 0.00 0.00 94 1019.6
20260506111117 48 94 0.0 0.9 0.00 0.00 0.00 95 1019.5
20260506110005 48 101 0.0 1.7 0.00 0.00 0.00 95 1019.5
20260506105616 48 99 0.0 1.7 0.00 0.00 0.00 94 1019.6
20260506104505 48 102 0.0 0.9 0.00 0.00 0.00 94 1019.5
20260506103816 48 100 0.0 0.9 0.00 0.00 0.00 94 1019.5
20260506102918 48 100 0.0 1.7 0.00 0.00 0.00 94 1019.5
20260506101805 48 96 0.0 1.7 0.00 0.00 0.00 93 1019.5
20260506100904 48 98 0.0 0.9 0.00 0.00 0.00 93 1019.5
20260506100215 49 101 0.0 0.9 0.00 0.00 0.00 93 1019.6
20260506095617 49 99 0.0 0.9 0.00 0.00 0.00 93 1019.6
20260506094505 49 118 0.0 0.9 0.00 0.00 0.00 93 1019.6
20260506093816 49 108 0.0 0.9 0.00 0.00 0.00 93 1019.7
20260506092914 50 97 0.0 0.9 0.00 0.00 0.00 93 1019.6
20260506091806 50 124 0.0 0.9 0.00 0.00 0.00 92 1019.6
20260506090905 50 91 0.0 0.9 0.00 0.00 0.00 92 1019.6
20260506090005 50 91 0.0 0.9 0.00 0.00 0.00 92 1019.7
20260506085405 50 91 0.0 0.9 0.00 0.00 0.00 92 1019.6
20260506084715 50 0 0.0 0.0 0.00 0.00 0.00 91 1019.6
20260506083605 51 102 0.0 0.9 0.00 0.00 0.00 91 1019.5
20260506082914 51 102 0.0 0.9 0.00 0.00 0.00 91 1019.5
20260506081805 52 0 0.0 0.0 0.00 0.00 0.00 89 1019.5
20260506080905 52 0 0.0 0.0 0.00 0.00 0.00 89 1019.4
20260506080216 53 0 0.0 0.0 0.00 0.00 0.00 88 1019.4
20260506072705 55 0 0.0 0.0 0.00 0.00 0.00 85 1019.1
20260506071805 56 0 0.0 0.0 0.00 0.00 0.00 85 1019.3
20260506070905 56 0 0.0 0.0 0.00 0.00 0.00 85 1019.2
20260506070217 56 0 0.0 0.0 0.00 0.00 0.00 84 1019.1
20260506061805 57 0 0.0 0.0 0.00 0.00 0.00 83 1019.0
20260506060905 57 0 0.0 0.0 0.00 0.00 0.00 82 1018.9
20260506060218 57 0 0.0 0.0 0.00 0.00 0.00 83 1018.8
20260506050904 57 216 0.0 0.9 0.00 0.00 0.00 83 1018.6
20260506044717 57 223 0.0 0.9 0.00 0.00 0.00 83 1018.5
20260506043814 57 0 0.0 0.0 0.00 0.00 0.00 84 1018.4
20260506042917 57 0 0.0 0.0 0.00 0.00 0.00 84 1018.3
20260506042014 57 263 0.0 0.9 0.00 0.00 0.00 84 1018.2
20260506040905 57 0 0.0 0.0 0.00 0.00 0.00 84 1018.1
20260506040219 57 302 0.0 0.9 0.00 0.00 0.00 85 1018.1
20260506035404 57 302 0.0 0.9 0.00 0.00 0.00 85 1018.0
20260506034505 57 0 0.0 0.0 0.00 0.00 0.00 84 1017.9
20260506033815 57 0 0.0 0.0 0.00 0.00 0.00 85 1017.7
20260506032917 57 0 0.0 0.0 0.00 0.00 0.00 85 1017.6
20260506032015 57 316 0.0 0.9 0.00 0.00 0.00 85 1017.6
20260506030905 57 276 0.0 1.7 0.00 0.00 0.00 84 1017.3
20260506030005 58 291 0.0 0.9 0.00 0.00 0.00 83 1017.2
20260506025616 58 275 0.0 0.9 0.00 0.00 0.00 83 1017.1
20260506024718 58 278 0.9 3.5 0.00 0.00 0.00 83 1017.2
20260506023605 58 292 0.9 3.5 0.00 0.00 0.00 81 1017.4
20260506022918 58 297 0.9 3.5 0.00 0.00 0.00 81 1017.4
20260506022015 58 303 0.9 4.3 0.00 0.00 0.00 80 1017.3
20260506021118 58 294 0.9 2.6 0.00 0.00 0.00 78 1017.2
20260506020215 59 305 0.9 4.3 0.00 0.00 0.00 77 1017.1
20260506015405 59 283 0.0 3.5 0.00 0.00 0.00 76 1017.1
20260506014714 60 284 0.9 3.5 0.00 0.00 0.00 75 1016.9
20260506013604 60 293 0.9 4.3 0.00 0.00 0.00 74 1016.9
20260506012919 60 310 1.7 6.1 0.00 0.00 0.00 75 1016.9
20260506012016 61 302 1.7 5.2 0.00 0.00 0.00 73 1016.9
20260506010905 62 285 0.9 4.3 0.00 0.00 0.00 71 1016.8
20260506010005 63 278 0.9 3.5 0.00 0.00 0.00 69 1016.8
20260506005404 62 284 1.7 5.2 0.00 0.00 0.00 69 1016.9
20260506004720 62 301 0.9 5.2 0.00 0.00 0.00 70 1016.8
20260506003817 63 281 0.9 4.3 0.00 0.00 0.00 70 1016.8
20260506002914 62 279 0.9 4.3 0.00 0.00 0.00 71 1016.7
20260506001805 61 285 1.7 6.1 0.00 0.00 0.00 72 1016.8
20260506000905 62 288 1.7 6.1 0.00 0.00 0.00 71 1016.6
20260506000005 62 319 0.9 6.1 0.00 0.00 0.00 71 1016.6
20260505235618 62 318 1.7 6.1 0.00 0.00 0.00 71 1016.5
20260505234505 62 296 1.7 7.0 0.00 0.00 0.00 70 1016.5
20260505233605 63 289 0.9 5.2 0.00 0.00 0.00 69 1016.4
20260505232915 63 287 0.9 5.2 0.00 0.00 0.00 68 1016.5
20260505231805 63 274 1.7 5.2 0.00 0.00 0.00 71 1016.5
20260505230904 62 317 1.7 5.2 0.00 0.00 0.00 71 1016.5
20260505230217 61 300 1.7 6.1 0.00 0.00 0.00 73 1016.6
20260505225405 61 285 0.9 4.3 0.00 0.00 0.00 73 1016.7
20260505224716 62 260 0.9 2.6 0.00 0.00 0.00 75 1016.7
20260505223604 62 273 0.9 6.1 0.00 0.00 0.00 74 1016.8
20260505222916 62 278 0.9 3.5 0.00 0.00 0.00 73 1016.8